Regional Weather Roundup
Issued by NWS Grand Forks, ND

Home | Current Version | Previous Version | Text Only | Print | Product List | Glossary Off
Versions: 1 2 3 4 5 6 7 8 9 10 11 12 13 14 15 16 17 18 19 20 21 22 23 24 25 26 27 28 29 30 31 32 33 34 35 36 37 38 39 40 41 42 43 44 45 46 47 48 49 50

000
ASUS43 KFGF 270110
RWRFGF
PRAIRIE TO PINES  WEATHER ROUNDUP
NATIONAL WEATHER SERVICE EASTERN NORTH DAKOTA/GRAND FORKS ND
800 PM CDT TUE MAY 26 2015

 **SATELLITE DATA USED TO AUGMENT SKY COVER AT AUTOMATED STATIONS**
 *****  WEATHER ACROSS EASTERN NORTH DAKOTA  *****

CITY           SKY/WX    TMP DP  RH WIND       PRES   REMARKS
GRAND FORKS    MOSUNNY   74  50  42 NW9       29.72R
GRAND FRKS AFB LGT RAIN  74  56  52 NW12      29.75R
GRAND FRKS NWS   N/A     72 N/A N/A NW10        N/A
DEVILS LAKE    MOSUNNY   77  43  29 NW14      29.78S
FARGO          MOCLDY    74  54  49 W6        29.76R
WAHPETON ARPT  CLOUDY    70  52  52 SW6       29.78S
$$

 ***** WEATHER ACROSS CENTRAL AND WESTERN NORTH DAKOTA  *****

CITY           SKY/WX    TMP DP  RH WIND       PRES   REMARKS
BISMARCK       MOSUNNY   71  53  52 SE5       29.87S
MINOT          CLOUDY    65  50  58 N6        29.89R
JAMESTOWN      MOSUNNY   71  49  45 NW10      29.79R
MINOT AFB      PTSUNNY   66  62  88 S6        29.87F
GARRISON         N/A     76  42  29 NE7       29.85F
WILLISTON      SUNNY     79  39  23 SW7       29.86S
DICKINSON      SUNNY     71  46  40 S10       29.88S
HETTINGER      SUNNY     69  47  45 S7        29.92S
$$

 *****  OTHER AIRPORT OBSERVATIONS IN OUR AREA  *****

CITY           SKY/WX    TMP DP  RH WIND       PRES   REMARKS
WALHALLA         N/A     81  39  22 MISG      29.74S
GRAFTON AIRPOR FAIR      81  45  28 N7        29.73S
VALLEY CITY AR FAIR      72  55  56 SW9       29.79R
CANDO          FAIR      75  41  29 NW15      29.80R
CAVALIER APRT  FAIR      81  41  24 N8        29.73S
GWINNER        NOT AVBL
SHEYENNE NWR     N/A     65  57  75 W7        29.95S
ROLLA          FAIR      75  37  25 NW15      29.82S
 ***** THE ABOVE OBSERVATIONS ARE NON NWS ARE NOT QUALITY
       CONTROLLED AND MAY MIS-REPORT RAIN FOR SNOW...
$$

  *****  WEATHER ACROSS NORTHERN MINNESOTA  *****

CITY           SKY/WX    TMP DP  RH WIND       PRES   REMARKS
FLAG ISLAND    LGT RAIN  64  55  72 S6        29.71S
WARROAD        HAZE      75  54  46 W3        29.73S VSB 1
ROSEAU         PTCLDY    75  54  46 S3        29.72
HALLOCK        PTSUNNY   81  45  28 CALM      29.71S
THF RVR FALLS  MOCLDY    75  54  46 S6        29.75R
BAUDETTE       PTCLDY    74  53  48 SW10      29.73S
WASKISH        MOCLDY    72  57  60 CALM      29.75S
CROOKSTON      FAIR      73  55  53 CALM      29.74R
STEPHEN NDAWN    N/A     79  54  41 E3          N/A
GREENBUSH NDAW   N/A     73  57  56 S3          N/A
$$
  *****  WEATHER ACROSS CENTRAL AND WEST MINNESOTA  *****

CITY           SKY/WX    TMP DP  RH WIND       PRES   REMARKS
FOSSTON        MOCLDY    72  54  53 SW8       29.77S
BEMIDJI        CLOUDY    70  53  54 S5        29.76F
PARK RAPIDS    CLOUDY    71  54  54 S3        29.78S
ELBOW LAKE     FAIR      68  56  65 W5        29.79S
WADENA         CLOUDY    68  55  64 CALM      29.79S
DETROIT LAKES  CLOUDY    70  54  56 W5        29.79F
MOORHEAD       MOCLDY    72  57  60 SW3       29.77S
FERGUS FALLS   CLOUDY    70  57  64 SW3       29.79S
MORRIS MN      CLOUDY    70  57  64 W3        29.79S
STAPLES        CLOUDY    64  54  68 S3        29.79S
$$
  *****  WEATHER ELSEWHERE ACROSS MINNESOTA  *****

CITY           SKY/WX    TMP DP  RH WIND       PRES   REMARKS
DULUTH         CLOUDY    58  50  75 N6        29.78F
INTRNTL FALLS  MOCLDY    73  50  44 CALM      29.74S
ELY            NOT AVBL
CLOQUET        CLOUDY    59  48  67 N5        29.79S
WHEATON        CLOUDY    68  55  64 SE3       29.81S
BRAINERD       CLOUDY    64  54  69 CALM      29.79S
HIBBING        CLOUDY    64  50  60 CALM      29.78S
ALEXANDRIA     CLOUDY    66  52  60 CALM      29.81S
SAINT CLOUD    CLOUDY    60  56  86 CALM      29.78S
MINNEAPOLIS    LGT RAIN  58  56  93 NW8       29.77R
$$

  *****  WEATHER ACROSS SOUTH DAKOTA  *****

CITY           SKY/WX    TMP DP  RH WIND       PRES   REMARKS
SIOUX FALLS    CLOUDY    65  52  62 NW7       29.84R
BROOKINGS      CLOUDY    66  54  63 CALM      29.85R
WATERTOWN      CLOUDY    68  54  60 W3        29.84R
HURON          CLOUDY    72  51  47 E3        29.83R
SISSETON         N/A     70  54  56 W7        29.80R
ABERDEEN       CLOUDY    66  55  67 W6        29.83R
MITCHELL       MOCLDY    74  51  44 CALM      29.84S
PIERRE         MOSUNNY   73  49  42 NE12      29.87R
MOBRIDGE       SUNNY     78  48  34 N3        29.85R
RAPID CITY     MOSUNNY   65  49  56 S7        29.94F
$$

  *****  SOME WEATHER IN NEARBY STATES *****

CITY           SKY/WX    TMP DP  RH WIND       PRES   REMARKS
GLASGOW MT     MOSUNNY   75  40  28 S3        29.86R
GREAT FALLS MT MOSUNNY   62  48  60 NE3       29.95S
CHEYENNE WY    CLOUDY    57  43  59 S8        30.05S
SCOTTSBLUFF NE MOSUNNY   67  50  54 SE12      29.98R
OMAHA NE       MOCLDY    68  56  65 W7        29.85S
DES MOINES IA  MOCLDY    66  61  84 NW9       29.81R
DAVENPORT IA   MOCLDY    69  61  75 SW6       29.80R
CHICAGO IL     PTCLDY    69  62  78 SW12      29.79R
EAU CLAIRE WI  RAIN      59  57  93 W7        29.70S FOG
LA CROSSE WI   LGT RAIN  63  59  87 W10       29.71R
$$

  *****  SOME NATIONAL WEATHER *****

CITY           SKY/WX    TMP DP  RH WIND       PRES   REMARKS
LA GUARDIA NY  MOCLDY    72  59  63 S9        30.13R
RALEIGH NC     MOCLDY    79  69  71 S13G20    30.20S
ATLANTA GA     CLOUDY    67  65  93 SE6       30.18F
NEW ORLEANS LA MOCLDY    82  67  60 SE5       30.08R
OKLAHOMA CITY  CLOUDY    73  68  84 S7        29.95R
ALBUQUERQUE NM MOSUNNY   75  37  25 SW6       30.05S
SALT LAKE CITY CLOUDY    61  48  62 CALM      30.01S
LOS ANGELES CA CLOUDY    62  56  80 W16       29.97F
BOISE ID       SUNNY     76  41  28 SW9       29.86F
SEATTLE WA     PTSUNNY   70  49  47 NW9       30.02F
$$

*** WEATHER ACROSS MANITOBA...SASKATCHEWAN AND ONTARIO ***
                ***ONTARIO***

CITY           SKY/WX    TMP DP  RH WIND       PRES   REMARKS
GERALDTON      CLOUDY    66  52  59 SE3       29.76F
THUNDER BAY    CLOUDY    59  54  82 NE5       29.77F
SIOUX LOOKOUT  MOCLDY    73  48  40 SW6       29.72S
TORONTO        PTCLDY    79  63  57 S10       29.95S
BIG TROUT LK   CLOUDY    43  36  75 NE10G21   29.80S
PICKLE LAKE    MOCLDY    75  45  33 SW8       29.67S
DRYDEN         CLEAR     73  45  35 W8        29.74S
KENORA         MOCLDY    72  48  43 NW6       29.75R
$$
                *** MANITOBA***

CITY           SKY/WX    TMP DP  RH WIND       PRES   REMARKS
BRANDON        PTSUNNY   72  46  40 NE14G29   29.79R
DAUPHIN        PTSUNNY   66  52  59 N20G28    29.81R
ISLAND LAKE    PTSUNNY   46  37  71 N15       29.88R
PILOT MOUND      N/A     77  41  27 NW15G23     N/A
THE PAS        PTSUNNY   50  39  66 N7        29.95R
THOMPSON       MOSUNNY   45  30  57 N7        29.98S
WINNIPEG       MOSUNNY   77  50  38 N16       29.73S
LYNN LAKE      SUNNY     52  12  20 NW9G18    29.97S
CHURCHILL      PTSUNNY   34  23  64 SE8       30.02S
GILLAM         SUNNY     39  25  56 NE8       29.99R
$$
                ***SASKATCHEWAN***

CITY           SKY/WX    TMP DP  RH WIND       PRES   REMARKS
ESTEVAN        PTSUNNY   73  45  35 W2        29.86F
KINDERSLEY     CLOUDY    75  39  27 E16       29.87S
LLOYDMINSTER   MOSUNNY   72  32  23 NE12G17   29.92F
PRINCE ALBERT  NOT AVBL
REGINA         PTSUNNY   77  39  25 W12       29.83F
YORKTON        MOSUNNY   75  45  33 N14       29.80R
N. BATTLEFORD  SUNNY     73  43  33 NE15      29.90S
LA RONGE       MOSUNNY   55  36  47 N8        30.00S
SASKATOON      MOSUNNY   73  45  35 N16G24    29.88R
SWIFT CURRENT  PTSUNNY   75  36  23 SE5       29.88S
$$
NOTE: THESE ARE AUTOMATED STATIONS WITH LIMITED QUALITY CONTROL
      "FAIR" INDICATES FEW OR NO CLOUDS BELOW 12,000 FEET WITH NO
      SIGNIFICANT WEATHER AND/OR OBSTRUCTIONS TO VISIBILITY.
      SKY/WX - SKY CONDITION AND SIGNIFICANT WEATHER.
      TMP - AIR TEMPERATURE.    DP   - DEWPOINT TEMPERATURE.
      RH  - RELATIVE HUMIDITY.  PRES - PRESSURE.
      HX  - HEAT INDEX.         WCI  - WIND CHILL INDEX.
$


USA.gov is the U.S. government's official web portal to all federal, state and local government web resources and services.